Location: Arbon
(43.0005°N, 0.7472°E)
Time: 01:14:13
(UTC+00:00)

SJ 16-02 - Pass Details

Date: 07 August 2020
Orbit: 607 x 616 km, 75.0° (Epoch: 19 September)

Event Time Altitude Azimuth Distance (km) Brightness Sun altitude
Exits shadow 03:02:11 29° 264° (W) 1,124 2.3 -17.8°
Maximum altitude 03:03:19 34° 295° (WNW) 1,018 2.3 -17.7°
Drops below altitude 10° 03:07:21 10° 1° (N) 1,980 4.6 -17.2°
Sets 03:09:46 0° 11° (N) 2,888 5.7 -16.8°
